This demonstration page uses our WeatherBlox Daily Observations layout. Learn more.

Hourly Observations for October 10, 2018

Temp ( °F °C ) Dew Point ( °F °C ) Humidity (%) Winds ( mph kmh ) Pressure ( in mb ) Visibility ( mi km ) Precip ( " mm )
12:15 am 00:15 Cloudy with Mist and Fog 38 3.2 38 3.2 100 100 NNW 13 20 29.85 1011 3 4.828032 0 0
12:35 am 00:35 Cloudy with Mist and Fog 38 3.2 38 3.2 100 100 NNW 13 20 29.85 1011 4 6.437376 0 0
12:55 am 00:55 Cloudy with Mist and Fog 38 3.1 38 3.1 100 100 NNW 15 24 29.85 1011 4 6.437376 0 0
1:15 am 01:15 Cloudy 38 3.2 38 3.2 100 100 NNW 9 15 29.85 1011 10 16.09344 0 0
1:35 am 01:35 Cloudy 38 3.2 38 3.2 100 100 NNW 12 19 29.88 1012 7 11.265408 0 0
1:55 am 01:55 Cloudy with Mist and Fog 37 3 37 3 100 100 NNW 10 17 29.88 1012 3 4.828032 0 0
2:15 am 02:15 Cloudy with Mist and Fog 37 3 37 3 100 100 NNW 15 24 29.88 1012 2.5 4.02336 0 0
2:35 am 02:35 Cloudy with Mist and Fog 37 3 37 3 100 100 NW 10 17 29.88 1012 2.5 4.02336 0 0
2:55 am 02:55 Cloudy with Light Drizzle 37 3 37 3 100 100 NW 12 19 29.88 1012 3 4.828032 0 0
3:15 am 03:15 Cloudy with Light Rain 37 3 37 3 100 100 NW 10 17 29.88 1012 2.5 4.02336 0 0
3:35 am 03:35 Cloudy with Mist and Fog 37 2.7 37 2.7 100 100 NW 13 20 29.88 1012 2.5 4.02336 0 0
3:55 am 03:55 Cloudy with Mist and Fog 37 2.6 37 2.6 100 100 NW 10 17 29.88 1012 3 4.828032 0 0
4:15 am 04:15 Cloudy with Mist and Fog 37 2.6 37 2.6 100 100 NW 14 22 29.91 1013 3 4.828032 0 0
4:35 am 04:35 Cloudy with Mist and Fog 37 2.5 37 2.5 100 100 NW 12 19 29.91 1013 3 4.828032 0 0
4:55 am 04:55 Cloudy with Mist and Fog 36 2.3 36 2.3 100 100 NW 13 20 29.91 1013 3 4.828032 0 0
5:15 am 05:15 Cloudy with Mist and Fog 36 2.2 36 2.2 100 100 NNW 13 20 29.91 1013 5 8.04672 0 0
5:35 am 05:35 Cloudy 36 2.1 36 2.1 100 100 NNW 15 24 29.91 1013 10 16.09344 0 0
5:55 am 05:55 Cloudy 36 2.1 36 2 99 99 NNW 10 17 29.91 1013 10 16.09344 0 0
6:15 am 06:15 Cloudy 36 2.2 36 2 99 99 NNW 15 24 29.91 1013 10 16.09344 0 0
6:35 am 06:35 Cloudy 36 2.2 35 1.8 97 97 NNW 13 20 29.91 1013 10 16.09344 0 0
6:55 am 06:55 Cloudy 36 2.3 35 1.7 96 96 NNW 14 22 29.91 1013 10 16.09344 0 0
7:15 am 07:15 Cloudy 36 2.2 35 1.6 96 96 NNW 10 17 29.94 1014 10 16.09344 0 0
7:35 am 07:35 Cloudy 36 2.2 35 1.6 96 96 NW 14 22 29.94 1014 10 16.09344 0 0
7:55 am 07:55 Cloudy 36 2.1 34 1.3 95 95 NNW 13 20 29.94 1014 10 16.09344 0 0
8:15 am 08:15 Cloudy 36 2.1 35 1.5 96 96 NW 16 26 29.94 1014 10 16.09344 0 0
8:35 am 08:35 Cloudy 36 2.2 34 1.2 93 93 NNW 15 24 29.97 1015 10 16.09344 0 0
8:55 am 08:55 Cloudy 37 2.5 35 1.6 94 94 NW 14 22 29.97 1015 10 16.09344 0 0
9:15 am 09:15 Cloudy 37 2.5 34 1.2 91 91 NW 12 19 29.97 1015 10 16.09344 0 0
9:35 am 09:35 Cloudy 37 2.7 35 1.4 91 91 NW 16 26 29.97 1015 10 16.09344 0 0
9:55 am 09:55 Cloudy 37 2.9 35 1.4 90 90 NW 14 22 30 1016 10 16.09344 0 0
10:15 am 10:15 Cloudy 38 3.1 34 1.3 88 88 NNW 14 22 29.97 1015 10 16.09344 0 0
10:35 am 10:35 Cloudy 39 3.8 35 1.7 86 86 NW 17 28 30 1016 10 16.09344 0 0
10:55 am 10:55 Cloudy 39 3.8 35 1.7 86 86 NNW 16 26 30 1016 10 16.09344 0 0
11:15 am 11:15 Cloudy 39 3.7 34 1.2 84 84 NNW 18 30 30 1016 10 16.09344 0 0
11:35 am 11:35 Cloudy 40 4.6 35 1.8 82 82 NNW 14 22 30 1016 10 16.09344 0 0
11:55 am 11:55 Cloudy 40 4.6 34 1.3 79 79 NW 17 28 30 1016 10 16.09344 0 0
12:15 pm 12:15 Cloudy 41 5 34 1.1 76 76 NW 17 28 30 1016 10 16.09344 0 0
12:35 pm 12:35 Cloudy 42 5.4 35 1.6 77 77 NNW 15 24 29.97 1015 10 16.09344 0 0
12:55 pm 12:55 Cloudy 42 5.3 34 1.2 75 75 NW 16 26 30 1016 10 16.09344 0 0
1:15 pm 13:15 Cloudy 42 5.7 35 1.4 74 74 NW 17 28 29.97 1015 10 16.09344 0 0
1:35 pm 13:35 Cloudy 42 5.8 35 1.4 74 74 NW 15 24 30 1016 10 16.09344 0 0
1:55 pm 13:55 Cloudy 43 6 35 1.4 73 73 NW 13 20 30 1016 10 16.09344 0 0
2:15 pm 14:15 Cloudy 43 6 34 1.2 72 72 NW 12 19 30 1016 10 16.09344 0 0
2:35 pm 14:35 Cloudy 43 6.1 34 1.3 72 72 WNW 14 22 30 1016 10 16.09344 0 0
2:55 pm 14:55 Cloudy 43 6.1 34 1 70 70 NW 13 20 30 1016 10 16.09344 0 0
3:15 pm 15:15 Cloudy 44 6.5 34 1.3 70 70 NW 16 26 30 1016 10 16.09344 0 0
3:35 pm 15:35 Cloudy 44 6.5 34 1.1 69 69 NW 12 19 30 1016 10 16.09344 0 0
3:55 pm 15:55 Cloudy 44 6.5 33 0.8 67 67 NNW 14 22 30 1016 10 16.09344 0 0
4:15 pm 16:15 Cloudy 44 6.7 34 1.3 69 69 NNW 13 20 30 1016 10 16.09344 0 0
4:35 pm 16:35 Cloudy 44 6.8 34 1.2 68 68 NNW 13 20 30 1016 10 16.09344 0 0
4:55 pm 16:55 Cloudy 45 7 35 1.5 68 68 NNW 12 19 30 1016 10 16.09344 0 0
5:15 pm 17:15 Cloudy 45 7 35 1.4 68 68 NNW 15 24 30 1016 10 16.09344 0 0
5:35 pm 17:35 Cloudy 44 6.7 34 1.1 68 68 NNW 13 20 30.03 1017 10 16.09344 0 0
5:55 pm 17:55 Cloudy 43 6.3 34 1 69 69 NNW 13 20 30.03 1017 10 16.09344 0 0
6:15 pm 18:15 Cloudy 42 5.8 34 1 72 72 NNW 12 19 30.06 1018 10 16.09344 0 0
6:35 pm 18:35 Cloudy 42 5.5 34 1 73 73 NNW 12 19 30.09 1019 10 16.09344 0 0
6:55 pm 18:55 Cloudy 41 5.1 34 1.1 76 76 NNW 15 24 30.09 1019 10 16.09344 0 0
7:15 pm 19:15 Mostly Cloudy 40 4.5 33 0.6 76 76 NNW 14 22 30.09 1019 10 16.09344 0 0
7:35 pm 19:35 Cloudy 40 4.3 33 0.5 77 77 NNW 12 19 30.12 1020 10 16.09344 0 0
7:55 pm 19:55 Cloudy 40 4.3 33 0.4 76 76 NNW 9 15 30.12 1020 10 16.09344 0 0
8:15 pm 20:15 Cloudy 40 4.3 33 0.5 77 77 NW 10 17 30.12 1020 10 16.09344 0 0
8:35 pm 20:35 Cloudy 39 4.1 33 0.4 77 77 NNW 15 24 30.15 1021 10 16.09344 0 0
8:55 pm 20:55 Cloudy 39 4 33 0.5 78 78 N 10 17 30.15 1021 10 16.09344 0 0
9:15 pm 21:15 Cloudy 39 3.7 33 0.5 80 80 NNW 13 20 30.15 1021 10 16.09344 0 0
9:35 pm 21:35 Cloudy 38 3.3 33 0.3 81 81 N 8 13 30.18 1022 10 16.09344 0 0
9:55 pm 21:55 Cloudy 38 3.1 33 0.4 83 83 NNW 10 17 30.21 1023 10 16.09344 0 0
10:15 pm 22:15 Mostly Cloudy 37 2.6 33 0.3 85 85 NNW 8 13 30.21 1023 10 16.09344 0 0
10:35 pm 22:35 Partly Cloudy 35 1.9 32 0.1 88 88 NNW 6 9 30.21 1023 10 16.09344 0 0
10:55 pm 22:55 Clear 34 1.1 32 0 92 92 WNW 5 7 30.21 1023 10 16.09344 0 0
11:15 pm 23:15 Clear 33 0.5 32 -0.1 96 96 WNW 5 7 30.24 1024 10 16.09344 0 0
11:35 pm 23:35 Clear 32 0.1 32 -0.1 99 99 WNW 5 7 30.24 1024 10 16.09344 0 0
11:55 pm 23:55 Clear 32 0 31 -0.4 97 97 NW 6 9 30.24 1024 10 16.09344 0 0

Powered by AerisWeather